SIT-2086

Last updated on Sun Jun 21 2026 00:03:20 GMT+0000 (Coordinated Universal Time)

1 61764U 24199AF 26171.41780133 .00031504 00000+0 50030-3 0 9996 2 61764 97.2928 47.7879 0004905 234.4674 125.6123 15.53279196134931
UTC large
Height (km)
Speed (km/s)
/
Latitude / Longitude
Inclination (degrees)
Orbital Period (minutes)
Azimuth
Elevation
Range (km)
Doppler Factor

Next 0 passes for location: London (51.5072 / 0.1276)

No passes found over London.
SIT-2086